Retour au catalogue

ATLAS 5 CENTAUR DEB

LostHEO
NORAD 44687·DEBRIS·🇺🇸 United States

Lancé Oct 17, 2018 depuis Cape Canaveral Space Force Station

Loading…

Prochains Passages (prochaines 24 heures)

TLE

PériméSource: Space-Track

Époque: Jul 24, 2026, 08:12 UTC

1 44687U 18079AZ  26205.34233262 -.00000153  00000-0  00000-0 0  9994
2 44687  13.2855  34.9601 4629485 316.8272  14.8382  1.82180759 46833

Suivez ATLAS 5 CENTAUR DEB en temps réel avec AllMySat

Download on the App Store